[[{"header":{"parameterUnit":"m.s-1","parameterCategory":2,"la1":30.2991,"la2":30.254,"lo1":-89.0895,"lo2":-89.0444,"dy":0.0017,"dx":0.0017,"nx":28,"ny":28,"refTime":"2023-06-26T21:00:00:Z","depth":"0","parameterNumber":2,"parameterNumberName":"U-component_of_CURRENTS"},"data":[0,0,0,0,0,0,0,0,0,0,0,0,0,0,0,0,0,0,0,0,0,0,0,0,0,0,0,0,0,0,0,0,0,0,0,0,0,0,0,0,0,0,0,0,0,0,0,0,0,0,0,0,0,0,0,0,0,0,0.2036,0.2036,0,0.1996,0.1995,0.1994,0.1965,0.1965,0.1965,0.1964,0.1988,0.1989,0.199,0,0,0,0,0,0,0,0,0,0,0,0,0,0.2111,0.2109,0.2036,0.2036,0.2035,0.1996,0.1995,0.1994,0.1965,0.1965,0.1964,0.1964,0.1988,0.1989,0.199,0,0,0,0,0,0,0,0,0,0,0,0,0,0.2073,0.2109,0.2036,0.2017,0.2015,0.1996,0.1995,0.1994,0.1965,0.1965,0.1964,0.1964,0.1988,0.1989,0.199,0.2,0,0,0.1993,0.1994,0,0,0,0,0,0,0,0,0.2076,0.207,0.202,0.2018,0.2016,0.1986,0.203,0.2,0.1965,0.1982,0.1964,0.1964,0.1995,0.1995,0.1985,0.2001,0.2002,0.1993,0.1994,0.1995,0.1995,0,0,0,0,0,0,0,0.2078,0.2072,0.2018,0.202,0.2017,0.2018,0.2013,0.2024,0.199,0.1981,0.1979,0.1977,0.1994,0.1984,0.1986,0.2003,0.1993,0.1994,0.1995,0.1996,0.2036,0.2037,0,0,0,0,0,0,0.2085,0.2074,0.202,0.2017,0.2048,0.2017,0.2011,0.1995,0.1988,0.1987,0.1977,0.1976,0.1982,0.1984,0.1986,0.2013,0.1995,0.1996,0.1996,0.2036,0.2037,0.2037,0,0,0,0,0,0,0.2086,0.208,0.2021,0.2047,0.204,0.2016,0.1999,0.1994,0.1988,0.1985,0.1985,0.1976,0.1982,0.1985,0.1997,0.2014,0.1996,0.1997,0.2036,0.2036,0.2037,0.2058,0,0,0,0,0,0,0.2088,0.208,0.2075,0.2047,0.2039,0.2003,0.1999,0.1993,0.1988,0.1985,0.1985,0.1986,0.1982,0.1995,0.1998,0.2015,0.1998,0.2035,0.2036,0.2037,0.2057,0.2059,0.2062,0,0,0,0,0,0.2091,0.2082,0.2075,0.2068,0.203,0.2003,0.1998,0.1981,0.1988,0.1977,0.1984,0.1986,0.2002,0.1996,0.2,0.2017,0.2035,0.2036,0.2036,0.2056,0.2059,0.2061,0,0,0,0,0,0,0.2116,0.2077,0.2069,0.2049,0.2027,0.1999,0.199,0.1987,0.1983,0.1984,0.1991,0.1993,0.2012,0.201,0.2003,0.203,0.202,0.2021,0.2033,0.2036,0.2038,0.2058,0.1999,0,0,0,0,0,0.2119,0.2098,0.2066,0.2053,0.2038,0.2019,0.201,0.1995,0.1987,0.1984,0.1991,0.2001,0.2018,0.2022,0.203,0.2045,0.2059,0.2058,0.206,0.2062,0.208,0.2118,0.2126,0.204,0.204,0.204,0,0,0.2126,0.2104,0.2093,0.2057,0.2037,0.202,0.2011,0.1989,0.1993,0.199,0.2003,0.2012,0.2024,0.2038,0.2047,0.2039,0.2089,0.2063,0.2065,0.2082,0.212,0.2129,0.2136,0.2041,0.2041,0.2041,0,0,0.2128,0.2107,0.2087,0.2066,0.2034,0.2022,0.202,0.1994,0.1996,0.2002,0.2013,0.2035,0.2044,0.2063,0.2074,0.2098,0.2104,0.2094,0.212,0.2156,0.2164,0.2171,0.2182,0.219,0.2091,0.2091,0.2091,0,0.2146,0.2111,0.208,0.2057,0.2051,0.2027,0.2016,0.2012,0.2001,0.2019,0.2006,0.2054,0.2062,0.2108,0.2112,0.2107,0.2116,0.2108,0.2161,0.2169,0.2176,0.2185,0.2194,0.2092,0.2092,0.2092,0.2092,0,0.2125,0.2105,0.2092,0.2058,0.2047,0.203,0.2018,0.2023,0.203,0.2035,0.2075,0.2085,0.2117,0.2121,0.2125,0.2181,0.2168,0.2163,0.2156,0.2186,0.2193,0.2202,0.2094,0.2094,0.2093,0.2093,0,0,0.2143,0.2092,0.2086,0.2074,0.2048,0.2033,0.205,0.206,0.2082,0.2085,0.2122,0.216,0.2169,0.2184,0.2193,0.2225,0.2275,0.2215,0.2217,0.223,0.2339,0.2278,0.2281,0.2279,0.2281,0.2282,0.2318,0,0.214,0.2108,0.2088,0.2071,0.2052,0.2052,0.2073,0.2084,0.2097,0.2122,0.2155,0.2178,0.219,0.2199,0.2242,0.2262,0.2302,0.2265,0.2306,0.2307,0.2253,0.2291,0.2293,0.2321,0.2326,0.2327,0.2328,0,0.2109,0.21,0.2081,0.2077,0.2072,0.2066,0.2096,0.2105,0.2143,0.2158,0.2197,0.221,0.2263,0.2258,0.2338,0.2311,0.2341,0.2356,0.2358,0.2305,0.2263,0.2296,0.2336,0.2328,0.2342,0.2341,0.234,0,0.2103,0.2087,0.208,0.2072,0.2069,0.2078,0.2083,0.2113,0.2117,0.2165,0.2163,0.2244,0.2244,0.232,0.2344,0.235,0.2411,0.2419,0.2399,0.2394,0.2408,0.24,0.2454,0.25,0.25,0.25,0.25,0,0.2084,0.2067,0.2072,0.2058,0.2057,0.2065,0.2064,0.2088,0.2111,0.2102,0.2166,0.2165,0.2258,0.2291,0.2352,0.2383,0.242,0.242,0.241,0.241,0.2403,0.2404,0.2411,0.2501,0.2501,0.2501,0.25,0,0.2024,0.2039,0.2015,0.2032,0.2032,0.2015,0.2003,0.2003,0.2041,0.2026,0.2032,0.2095,0.2144,0.2222,0.2315,0.2354,0.2363,0.2419,0.2393,0.238,0.2357,0.2366,0.2215,0.2155,0.2427,0.2426,0.2425,0,0.1972,0.1959,0.1966,0.1948,0.1937,0.1922,0.1907,0.1947,0.1935,0.1968,0.1951,0.2001,0.202,0.2124,0.2241,0.2345,0.2296,0.2375,0.2402,0.2366,0.237,0.219,0.2139,0.2428,0.2427,0.2426,0.2425,0,0.1867,0.1877,0.1866,0.184,0.1817,0.1799,0.1782,0.1773,0.1813,0.1813,0.1819,0.1843,0.1959,0.2061,0.2182,0.2261,0.2282,0.236,0.2359,0.2408,0.2186,0.2119,0.2368,0.2419,0.242,0.242,0.2421,0.2421,0.1767,0.1744,0.174,0.1705,0.169,0.1671,0.1634,0.1634,0.1619,0.1601,0.1672,0.1673,0.1873,0.2062,0.217,0.2322,0.2216,0.2332,0.2354,0.2176,0.209,0.2295,0.2304,0.2304,0.2304,0.2304,0.2304,0,0.1629,0.1631,0.16,0.1569,0.1528,0.1561,0.1541,0.1506,0.1461,0.1473,0.1468,0.1579,0.1761,0.1983,0.2243,0.2309,0.2235,0.2303,0.2126,0.2087,0.2343,0.232,0.229,0.229,0.229,0.229,0.229,0.229,0.1553,0.1508,0.1513,0.1421,0.1403,0.1349,0.1335,0.1301,0.1302,0.1274,0.1282,0.1315,0.1558,0.198,0.2234,0.2281,0.217,0.2096,0.2035,0.2343,0.2348,0.2353,0.2333,0.2306,0.2306,0.169,0.1686,0.1683]},{"header":{"parameterUnit":"m.s-1","parameterCategory":2,"la1":30.2991,"la2":30.254,"lo1":-89.0895,"lo2":-89.0444,"dy":0.0017,"dx":0.0017,"nx":28,"ny":28,"refTime":"2023-06-26T21:00:00:Z","depth":"0","parameterNumber":3,"parameterNumberName":"V-component_of_CURRENTS"},"data":[0,0,0,0,0,0,0,0,0,0,0,0,0,0,0,0,0,0,0,0,0,0,0,0,0,0,0,0,0,0,0,0,0,0,0,0,0,0,0,0,0,0,0,0,0,0,0,0,0,0,0,0,0,0,0,0,0,0,-0.0103,-0.0102,0,-0.0042,-0.0041,-0.0041,-0.0017,-0.0017,-0.0017,-0.0017,-0.0002,-0.0002,-0.0002,0,0,0,0,0,0,0,0,0,0,0,0,0,-0.0195,-0.0194,-0.0103,-0.0102,-0.0101,-0.0042,-0.0041,-0.0041,-0.0017,-0.0017,-0.0017,-0.0017,-0.0002,-0.0002,-0.0002,0,0,0,0,0,0,0,0,0,0,0,0,0,-0.015,-0.0194,-0.0103,-0.0079,-0.0076,-0.0042,-0.0041,-0.0041,-0.0017,-0.0017,-0.0017,-0.0017,-0.0002,-0.0002,-0.0002,-0.0005,0,0,-0.0001,-0.0,0,0,0,0,0,0,0,0,-0.0153,-0.0147,-0.0084,-0.0081,-0.0077,-0.0033,-0.0068,-0.003,-0.0017,-0.0044,-0.0017,-0.0016,-0.0015,-0.0013,-0.0007,-0.0004,-0.0003,-0.0001,-0.0,-0.0,-0.0,0,0,0,0,0,0,0,-0.0156,-0.015,-0.0083,-0.0083,-0.0079,-0.0069,-0.0063,-0.0061,-0.0035,-0.0041,-0.0039,-0.0026,-0.0014,-0.0007,-0.0007,-0.0003,-0.0001,-0.0,-0.0,0.0,-0.0019,-0.002,0,0,0,0,0,0,-0.0156,-0.0153,-0.0085,-0.008,-0.0111,-0.0068,-0.0061,-0.0051,-0.0034,-0.003,-0.0026,-0.0025,-0.0008,-0.0007,-0.0006,0.001,-0.0,0.0,0.0,-0.0019,-0.002,-0.002,0,0,0,0,0,0,-0.0158,-0.0151,-0.0087,-0.0112,-0.0103,-0.0066,-0.0055,-0.005,-0.0041,-0.0021,-0.0019,-0.0022,-0.0008,-0.0007,-0.0002,0.001,0.0,0.0001,-0.0018,-0.0019,-0.002,0.003,0,0,0,0,0,0,-0.0162,-0.0152,-0.0152,-0.0112,-0.0101,-0.0068,-0.0055,-0.0049,-0.0032,-0.003,-0.0017,-0.0015,-0.0008,-0.0002,-0.0001,0.001,0.0001,-0.0017,-0.0018,-0.002,0.0029,0.003,0.0032,0,0,0,0,0,-0.0165,-0.0163,-0.0152,-0.0144,-0.01,-0.0068,-0.0062,-0.0038,-0.0032,-0.003,-0.0019,-0.0016,-0.0011,-0.0002,-0.0001,0.0011,-0.0016,-0.0018,-0.002,0.0028,0.003,0.0031,0,0,0,0,0,0,-0.0199,-0.0159,-0.0146,-0.0132,-0.0102,-0.0062,-0.0057,-0.0039,-0.0029,-0.003,-0.0016,-0.0014,-0.0006,-0.0015,-0.0006,-0.0005,-0.0017,-0.0018,0.0019,0.0021,0.0022,0.0039,0.0001,0,0,0,0,0,-0.0206,-0.02,-0.0154,-0.0145,-0.013,-0.0096,-0.0082,-0.0062,-0.0042,-0.0037,-0.0022,-0.0019,-0.0013,-0.001,-0.0009,-0.0005,-0.001,-0.0004,-0.0002,-0.0,0.001,0.0011,0.0015,-0.0026,-0.0026,-0.0026,0,0,-0.0217,-0.0194,-0.0191,-0.0153,-0.0131,-0.0099,-0.0088,-0.0066,-0.0037,-0.0038,-0.0009,-0.0011,-0.0013,-0.0002,-0.0001,-0.0006,0.0004,-0.0003,-0.0001,0.0009,0.001,0.0014,0.0018,-0.0027,-0.0027,-0.0027,0,0,-0.0228,-0.0215,-0.0207,-0.018,-0.0141,-0.0113,-0.0106,-0.0064,-0.0046,-0.002,-0.0014,-0.0008,0.0,0.0011,0.0014,0.0017,0.0012,0.0005,0.0033,0.0034,0.0038,0.0042,0.0032,0.0035,0.0006,0.0006,0.0006,0,-0.0238,-0.0214,-0.02,-0.0175,-0.0144,-0.0117,-0.0085,-0.0062,-0.0023,-0.0004,-0.001,0.0015,0.0012,0.0037,0.0039,0.0026,0.0018,0.0036,0.0039,0.0043,0.0046,0.0035,0.0038,0.0009,0.0008,0.0008,0.0008,0,-0.023,-0.0206,-0.0198,-0.0153,-0.0127,-0.0097,-0.0053,-0.0029,-0.0006,0.0022,0.0049,0.0048,0.0063,0.0058,0.0055,0.0073,0.0057,0.0045,0.0045,0.0054,0.0041,0.0042,0.0012,0.0011,0.001,0.001,0,0,-0.0243,-0.02,-0.0192,-0.016,-0.0107,-0.0078,-0.0037,0.0018,0.0052,0.0073,0.0114,0.0121,0.0117,0.0118,0.011,0.0113,0.0124,0.009,0.0089,0.0099,0.0118,0.0093,0.0092,0.0115,0.0116,0.0117,0.0099,0,-0.0227,-0.018,-0.0161,-0.0102,-0.0062,-0.0026,0.0015,0.0059,0.009,0.0129,0.0136,0.0159,0.0141,0.0143,0.0147,0.0131,0.0131,0.0129,0.0093,0.0092,0.0084,0.0094,0.0147,0.0135,0.01,0.0101,0.0101,0,-0.0203,-0.0172,-0.0118,-0.0053,-0.0033,-0.0,0.0074,0.0111,0.0161,0.0181,0.0202,0.0203,0.0216,0.019,0.0181,0.018,0.0154,0.0139,0.0138,0.0102,0.007,0.0119,0.0139,0.0147,0.0103,0.0103,0.0103,0,-0.0188,-0.013,-0.0086,-0.0062,0.0006,0.0035,0.007,0.0126,0.0156,0.0206,0.0221,0.0242,0.0239,0.0226,0.0192,0.0185,0.0177,0.0159,0.0113,0.0111,0.0143,0.0142,0.0184,0.0152,0.0152,0.0152,0.0153,0,-0.0154,-0.0111,-0.0079,-0.0046,0.0006,0.0046,0.0099,0.014,0.0182,0.0213,0.0236,0.0252,0.0246,0.0238,0.021,0.0169,0.0186,0.0126,0.011,0.0157,0.0158,0.0154,0.0105,0.0152,0.0152,0.0152,0.0152,0,-0.0126,-0.0104,-0.0052,0.0001,0.0017,0.0054,0.0103,0.0137,0.0176,0.0212,0.0222,0.0254,0.0248,0.0238,0.0215,0.0178,0.0125,0.0128,0.0179,0.0169,0.0122,0.0071,-0.0031,-0.004,0.0075,0.0074,0.0074,0,-0.0102,-0.0076,-0.0033,-0.0016,0.0008,0.0054,0.0084,0.0133,0.016,0.0207,0.0221,0.0232,0.0248,0.0215,0.0184,0.0146,0.0101,0.014,0.0134,0.0135,0.0068,-0.0023,-0.0029,0.0194,0.0194,0.0195,0.0195,0,-0.0063,-0.0059,-0.0027,-0.0003,0.0025,0.0064,0.0104,0.0125,0.0175,0.0197,0.0225,0.0239,0.023,0.0247,0.0203,0.0161,0.0113,0.0142,0.0148,0.0166,0.0067,0.0047,0.0177,0.0199,0.0198,0.0198,0.0198,0.0198,-0.0047,-0.0033,-0.0014,0.0014,0.0042,0.0078,0.0113,0.014,0.0179,0.0225,0.0227,0.0275,0.0352,0.0311,0.022,0.0179,0.0091,0.0182,0.0121,0.003,0.0021,0.0143,0.0139,0.0139,0.0138,0.0138,0.0137,0,-0.0029,-0.0023,-0.0001,0.0032,0.0063,0.0079,0.0131,0.0164,0.02,0.0241,0.0265,0.0428,0.0434,0.0419,0.039,0.025,0.0147,0.0173,0.0109,0.0105,0.0252,0.0266,0.0285,0.0285,0.0285,0.0285,0.0285,0.0285,-0.0024,-0.0008,-0.0001,0.0044,0.007,0.0129,0.0163,0.0202,0.0249,0.0355,0.0461,0.0549,0.0757,0.055,0.04,0.0304,0.0171,0.0062,0.0003,0.0177,0.0176,0.0174,0.0182,0.0184,0.0183,-0.0084,-0.0087,-0.0088]}],[{"header":{"parameterUnit":"m.s-1","parameterCategory":2,"la1":30.2991,"la2":30.254,"lo1":-89.0895,"lo2":-89.0444,"dy":0.0017,"dx":0.0017,"nx":28,"ny":28,"refTime":"2023-06-26T21:00:00:Z","depth":"2","parameterNumber":2,"parameterNumberName":"U-component_of_CURRENTS"},"data":[0,0,0,0,0,0,0,0,0,0,0,0,0,0,0,0,0,0,0,0,0,0,0,0,0,0,0,0,0,0,0,0,0,0,0,0,0,0,0,0,0,0,0,0,0,0,0,0,0,0,0,0,0,0,0,0,0,0,-0.192,-0.192,0,-0.1892,-0.1892,-0.1891,-0.1797,-0.1796,-0.1794,-0.1792,-0.1682,-0.1681,-0.168,0,0,0,0,0,0,0,0,0,0,0,0,0,-0.1925,-0.1925,-0.192,-0.192,-0.192,-0.1892,-0.1892,-0.1891,-0.1798,-0.1795,-0.1793,-0.1791,-0.1682,-0.1681,-0.168,0,0,0,0,0,0,0,0,0,0,0,0,0,-0.1911,-0.1925,-0.192,-0.1871,-0.1867,-0.1892,-0.1892,-0.1891,-0.1798,-0.1795,-0.1793,-0.179,-0.1683,-0.1681,-0.168,-0.1726,0,0,-0.1674,-0.1674,0,0,0,0,0,0,0,0,-0.1911,-0.191,-0.1879,-0.1875,-0.187,-0.1847,-0.1853,-0.1832,-0.1799,-0.1822,-0.1792,-0.1788,-0.1733,-0.1727,-0.1726,-0.1721,-0.1716,-0.1674,-0.1673,-0.1672,-0.1672,0,0,0,0,0,0,0,-0.1912,-0.1911,-0.1907,-0.1879,-0.1873,-0.1862,-0.1857,-0.1849,-0.1791,-0.182,-0.1813,-0.1815,-0.1729,-0.1728,-0.1723,-0.1715,-0.1674,-0.1673,-0.1672,-0.1671,-0.1668,-0.1669,0,0,0,0,0,0,-0.1922,-0.1912,-0.1907,-0.1906,-0.1886,-0.1865,-0.1858,-0.1856,-0.1792,-0.1781,-0.1817,-0.1811,-0.1733,-0.1725,-0.1719,-0.1681,-0.1672,-0.1671,-0.167,-0.1667,-0.1669,-0.167,0,0,0,0,0,0,-0.1922,-0.1922,-0.1909,-0.191,-0.1908,-0.1868,-0.1866,-0.1857,-0.1824,-0.1792,-0.1778,-0.1791,-0.173,-0.1721,-0.1697,-0.1679,-0.167,-0.1668,-0.1666,-0.1668,-0.1669,-0.1663,0,0,0,0,0,0,-0.1922,-0.1922,-0.1912,-0.1911,-0.1908,-0.1917,-0.1868,-0.1858,-0.1833,-0.1823,-0.1766,-0.1754,-0.1727,-0.17,-0.1695,-0.1676,-0.1667,-0.1665,-0.1667,-0.1669,-0.1662,-0.1664,-0.1666,0,0,0,0,0,-0.1923,-0.1931,-0.1912,-0.191,-0.1899,-0.1918,-0.1915,-0.1876,-0.1834,-0.1832,-0.179,-0.1754,-0.1708,-0.17,-0.1694,-0.1674,-0.1664,-0.1666,-0.1669,-0.1661,-0.1663,-0.1665,0,0,0,0,0,0,-0.1927,-0.1923,-0.1901,-0.1905,-0.1905,-0.1902,-0.1893,-0.1871,-0.1838,-0.1812,-0.177,-0.1758,-0.1732,-0.1719,-0.1711,-0.1684,-0.168,-0.1681,-0.1676,-0.1678,-0.168,-0.1675,-0.1666,0,0,0,0,0,-0.1927,-0.1922,-0.1926,-0.1923,-0.1925,-0.1904,-0.19,-0.1878,-0.1858,-0.1838,-0.1801,-0.1766,-0.1747,-0.1721,-0.1711,-0.1697,-0.166,-0.1683,-0.1685,-0.1687,-0.1682,-0.1634,-0.1629,-0.1677,-0.1677,-0.1677,0,0,-0.1923,-0.1921,-0.1914,-0.1922,-0.1911,-0.1917,-0.1892,-0.1887,-0.1874,-0.1835,-0.1793,-0.1775,-0.175,-0.1731,-0.1718,-0.1706,-0.165,-0.1689,-0.169,-0.1685,-0.1635,-0.163,-0.1625,-0.1678,-0.1678,-0.1678,0,0,-0.1929,-0.1916,-0.1916,-0.1921,-0.1917,-0.1914,-0.191,-0.19,-0.1873,-0.1858,-0.182,-0.1792,-0.1765,-0.1737,-0.1721,-0.1734,-0.1672,-0.1729,-0.1715,-0.1668,-0.1662,-0.1657,-0.1579,-0.1568,-0.1717,-0.1717,-0.1717,0,-0.192,-0.1915,-0.1921,-0.1929,-0.1916,-0.191,-0.1903,-0.1901,-0.1879,-0.1852,-0.1842,-0.1783,-0.1767,-0.1723,-0.1731,-0.1733,-0.1686,-0.1701,-0.1666,-0.1661,-0.1655,-0.1577,-0.1564,-0.1717,-0.1717,-0.1717,-0.1717,0,-0.1932,-0.1918,-0.1922,-0.1916,-0.1917,-0.1912,-0.1914,-0.19,-0.1867,-0.1851,-0.1805,-0.1788,-0.1742,-0.1742,-0.174,-0.1695,-0.1666,-0.1679,-0.1651,-0.1649,-0.1568,-0.1554,-0.1717,-0.1717,-0.1717,-0.1717,0,0,-0.1908,-0.1925,-0.1912,-0.1895,-0.1897,-0.1896,-0.1887,-0.1866,-0.183,-0.1817,-0.1758,-0.1751,-0.1726,-0.1711,-0.1695,-0.1663,-0.1592,-0.1655,-0.1653,-0.156,-0.1453,-0.1336,-0.131,-0.1591,-0.1589,-0.1588,-0.14,0,-0.1891,-0.1894,-0.1903,-0.1876,-0.1867,-0.1861,-0.1846,-0.1828,-0.1806,-0.1763,-0.1737,-0.1694,-0.1718,-0.1683,-0.1659,-0.1618,-0.156,-0.164,-0.1484,-0.1478,-0.1361,-0.1292,-0.1322,-0.1149,-0.1386,-0.1384,-0.1382,0,-0.1866,-0.1872,-0.1847,-0.1826,-0.1818,-0.1799,-0.1744,-0.1739,-0.1705,-0.1684,-0.1645,-0.1634,-0.1587,-0.1613,-0.1513,-0.1558,-0.1504,-0.1471,-0.1463,-0.1347,-0.1337,-0.1196,-0.1115,-0.1359,-0.1361,-0.1363,-0.1364,0,-0.1806,-0.1808,-0.1775,-0.1771,-0.1769,-0.173,-0.1715,-0.1687,-0.1664,-0.1622,-0.159,-0.1547,-0.1498,-0.1453,-0.1408,-0.1447,-0.1286,-0.1326,-0.1157,-0.1147,-0.1138,-0.1129,-0.1234,-0.1235,-0.1235,-0.1235,-0.1236,0,-0.1763,-0.1728,-0.1736,-0.1717,-0.1662,-0.1671,-0.1603,-0.1594,-0.1561,-0.1512,-0.1533,-0.1475,-0.146,-0.1385,-0.1356,-0.1192,-0.1232,-0.1121,-0.1082,-0.1134,-0.1128,-0.1301,-0.1312,-0.1228,-0.123,-0.1231,-0.1233,0,-0.1683,-0.1695,-0.1658,-0.1644,-0.1628,-0.158,-0.1543,-0.1507,-0.1489,-0.1423,-0.1407,-0.1386,-0.1267,-0.1229,-0.1125,-0.1085,-0.0976,-0.0909,-0.095,-0.0918,-0.0878,-0.089,-0.0679,-0.0673,-0.0668,-0.0664,-0.066,0,-0.1639,-0.1613,-0.1589,-0.1561,-0.154,-0.1487,-0.1452,-0.1451,-0.1421,-0.1358,-0.1317,-0.1206,-0.1106,-0.0904,-0.0831,-0.0691,-0.0775,-0.0624,-0.0705,-0.0832,-0.0816,-0.0837,-0.0856,-0.0689,-0.0686,-0.0683,-0.0681,0,-0.1552,-0.1533,-0.1513,-0.1466,-0.1419,-0.1388,-0.1339,-0.1311,-0.1294,-0.1234,-0.1127,-0.1041,-0.0861,-0.0722,-0.0553,-0.0506,-0.0655,-0.0561,-0.0674,-0.0818,-0.0824,-0.0815,-0.0837,-0.066,-0.0662,-0.0664,-0.0665,-0.0666,-0.1459,-0.1434,-0.1404,-0.1347,-0.1316,-0.1267,-0.1212,-0.1169,-0.1094,-0.0994,-0.0968,-0.0805,-0.079,-0.0495,-0.0421,-0.0351,-0.0385,-0.0417,-0.0433,-0.0449,-0.0477,-0.0473,-0.0246,-0.0246,-0.0246,-0.0246,-0.0246,0,-0.135,-0.1332,-0.1287,-0.1236,-0.1188,-0.1188,-0.1123,-0.1065,-0.094,-0.0868,-0.0756,-0.0595,-0.0492,-0.0424,-0.0278,-0.0223,-0.0319,-0.0222,-0.0393,-0.0414,-0.0432,-0.0469,-0.023,-0.023,-0.0229,-0.0229,0,0,-0.129,-0.1227,-0.1218,-0.1114,-0.1079,-0.0991,-0.094,-0.0859,-0.0793,-0.0599,-0.0485,-0.0534,-0.0466,-0.0376,-0.0354,-0.026,-0.0354,-0.0258,-0.0283,-0.0513,-0.0532,-0.0558,-0.0635,0,0,0,0,0]},{"header":{"parameterUnit":"m.s-1","parameterCategory":2,"la1":30.2991,"la2":30.254,"lo1":-89.0895,"lo2":-89.0444,"dy":0.0017,"dx":0.0017,"nx":28,"ny":28,"refTime":"2023-06-26T21:00:00:Z","depth":"2","parameterNumber":3,"parameterNumberName":"V-component_of_CURRENTS"},"data":[0,0,0,0,0,0,0,0,0,0,0,0,0,0,0,0,0,0,0,0,0,0,0,0,0,0,0,0,0,0,0,0,0,0,0,0,0,0,0,0,0,0,0,0,0,0,0,0,0,0,0,0,0,0,0,0,0,0,0.0215,0.0216,0,0.025,0.0251,0.0251,0.0242,0.0241,0.0241,0.024,0.0241,0.0242,0.0243,0,0,0,0,0,0,0,0,0,0,0,0,0,0.0217,0.0216,0.0215,0.0216,0.0216,0.025,0.0251,0.0251,0.0242,0.0241,0.024,0.024,0.0241,0.0242,0.0243,0,0,0,0,0,0,0,0,0,0,0,0,0,0.023,0.0216,0.0215,0.0215,0.0216,0.025,0.0251,0.0251,0.0242,0.0241,0.024,0.0239,0.0241,0.0242,0.0243,0.0271,0,0,0.0246,0.0246,0,0,0,0,0,0,0,0,0.023,0.023,0.0215,0.0216,0.0216,0.024,0.0252,0.0256,0.0243,0.0233,0.024,0.0239,0.0238,0.024,0.0249,0.0271,0.0271,0.0246,0.0247,0.0247,0.0247,0,0,0,0,0,0,0,0.0229,0.0229,0.0229,0.0216,0.0216,0.024,0.024,0.0253,0.0241,0.0234,0.0233,0.0237,0.0238,0.0249,0.0249,0.0271,0.0246,0.0247,0.0248,0.0248,0.0282,0.0282,0,0,0,0,0,0,0.0221,0.0228,0.0228,0.023,0.022,0.024,0.024,0.0234,0.0241,0.0242,0.0237,0.0236,0.0247,0.0248,0.0249,0.0227,0.0247,0.0248,0.0249,0.0282,0.0282,0.0282,0,0,0,0,0,0,0.022,0.022,0.0227,0.023,0.0233,0.0241,0.0234,0.0235,0.0229,0.0245,0.0244,0.0228,0.0246,0.0248,0.0248,0.0229,0.0249,0.025,0.0281,0.0282,0.0282,0.0218,0,0,0,0,0,0,0.022,0.0219,0.0206,0.0229,0.0232,0.0229,0.0235,0.0237,0.0234,0.0232,0.0237,0.0237,0.0246,0.0247,0.0249,0.0231,0.025,0.0281,0.0282,0.0282,0.022,0.0216,0.0213,0,0,0,0,0,0.022,0.0201,0.0205,0.0205,0.0216,0.0228,0.0231,0.0235,0.0234,0.0226,0.0234,0.0236,0.0252,0.0248,0.0251,0.0232,0.0281,0.0282,0.0282,0.0222,0.0217,0.0213,0,0,0,0,0,0,0.019,0.02,0.0204,0.0188,0.0201,0.0226,0.0218,0.0228,0.0231,0.0223,0.0239,0.024,0.0233,0.0251,0.0246,0.0247,0.0267,0.0268,0.022,0.0216,0.0213,0.0208,0.0251,0,0,0,0,0,0.018,0.0166,0.0188,0.0172,0.0177,0.0198,0.0202,0.0207,0.0217,0.0217,0.0224,0.0235,0.0244,0.0242,0.0255,0.0255,0.0274,0.0248,0.0245,0.0242,0.0242,0.0255,0.0252,0.0284,0.0284,0.0284,0,0,0.0163,0.0167,0.0157,0.0165,0.0174,0.0176,0.0196,0.0194,0.0191,0.0217,0.0207,0.0221,0.0244,0.0241,0.024,0.0247,0.0243,0.0243,0.0239,0.0242,0.0256,0.0252,0.0249,0.0285,0.0285,0.0285,0,0,0.0129,0.0126,0.0109,0.012,0.0131,0.0147,0.0143,0.0163,0.0163,0.0167,0.0183,0.0188,0.0203,0.0213,0.0221,0.0213,0.0226,0.0214,0.0186,0.0198,0.0195,0.0193,0.0207,0.0207,0.0209,0.0209,0.0209,0,0.0106,0.0092,0.0106,0.0101,0.0106,0.013,0.0123,0.0131,0.0147,0.015,0.0152,0.0181,0.0191,0.0196,0.0188,0.0201,0.0213,0.0192,0.0191,0.0189,0.0188,0.0204,0.0204,0.0206,0.0207,0.0207,0.0207,0,0.0072,0.006,0.0051,0.0052,0.0059,0.0054,0.0076,0.0076,0.0084,0.0099,0.0105,0.0128,0.0145,0.0147,0.0161,0.0157,0.017,0.0184,0.0194,0.018,0.0198,0.02,0.0202,0.0203,0.0204,0.0205,0,0,0.0021,0.0025,0.0021,0.0019,0.0033,0.0038,0.0033,0.0043,0.0043,0.0055,0.0058,0.0072,0.0088,0.0101,0.0119,0.0127,0.012,0.0143,0.0145,0.0144,0.0145,0.0193,0.0199,0.0127,0.0127,0.0127,0.0159,0,-0.0011,-0.0032,-0.0017,-0.0034,-0.0039,-0.0013,-0.0013,-0.0001,0.0013,0.0021,0.0043,0.0054,0.0069,0.0075,0.0082,0.0116,0.0121,0.011,0.0171,0.0173,0.0206,0.0202,0.0184,0.0215,0.0161,0.0161,0.0161,0,-0.0044,-0.0054,-0.0076,-0.0068,-0.0067,-0.007,-0.0058,-0.0055,-0.0034,-0.0022,-0.0008,0.0017,0.003,0.0046,0.0085,0.0075,0.0102,0.0128,0.013,0.0199,0.0223,0.0224,0.022,0.0164,0.0163,0.0163,0.0163,0,-0.008,-0.0091,-0.0111,-0.011,-0.0099,-0.0102,-0.0096,-0.0075,-0.0067,-0.0051,-0.0042,-0.0016,-0.0003,0.0032,0.0075,0.008,0.012,0.0139,0.0208,0.0212,0.0224,0.0229,0.0164,0.0164,0.0164,0.0164,0.0164,0,-0.0114,-0.0127,-0.0132,-0.0142,-0.0156,-0.0136,-0.0141,-0.0128,-0.0108,-0.0098,-0.0071,-0.0055,-0.0008,0.0023,0.0065,0.0138,0.0112,0.0207,0.0225,0.0203,0.0206,0.0186,0.0188,0.0165,0.0165,0.0164,0.0164,0,-0.0141,-0.0148,-0.0167,-0.0171,-0.0173,-0.0183,-0.0169,-0.0166,-0.0148,-0.0134,-0.013,-0.0088,-0.0034,0.0016,0.0078,0.0133,0.0194,0.0222,0.0195,0.0211,0.0283,0.0281,0.0322,0.0324,0.0326,0.0327,0.0328,0,-0.0152,-0.0169,-0.019,-0.0202,-0.0205,-0.0214,-0.0213,-0.0193,-0.0183,-0.0148,-0.0141,-0.0092,-0.0004,0.0104,0.0183,0.0281,0.023,0.0295,0.0315,0.0286,0.0299,0.0295,0.0292,0.0298,0.0299,0.03,0.03,0,-0.0166,-0.0179,-0.0194,-0.0226,-0.0238,-0.0239,-0.0237,-0.0233,-0.0203,-0.0167,-0.011,-0.0029,0.0095,0.0207,0.0316,0.0359,0.0284,0.0317,0.0279,0.0271,0.0269,0.0281,0.0277,0.0307,0.0306,0.0306,0.0305,0.0305,-0.0168,-0.0187,-0.0214,-0.0239,-0.0255,-0.0258,-0.0252,-0.0224,-0.0185,-0.009,-0.0042,0.007,0.0088,0.0286,0.035,0.0395,0.0423,0.0393,0.0388,0.0383,0.0384,0.0386,0.0446,0.0446,0.0446,0.0446,0.0446,0,-0.0162,-0.019,-0.0219,-0.0249,-0.0266,-0.0271,-0.0258,-0.0214,-0.0149,-0.0049,0.0079,0.0071,0.0234,0.0244,0.0378,0.0472,0.0448,0.0422,0.0357,0.0352,0.0348,0.0344,0.0397,0.0397,0.0396,0.0396,0,0,-0.0159,-0.0191,-0.0212,-0.0247,-0.0268,-0.0266,-0.0255,-0.0166,-0.0096,0.0001,0.0048,0.0202,0.0194,0.021,0.0297,0.0373,0.0345,0.0369,0.0407,0.0321,0.0315,0.0335,0.0326,0,0,0,0,0]}],[{"header":{"parameterUnit":"m.s-1","parameterCategory":2,"la1":30.2991,"la2":30.254,"lo1":-89.0895,"lo2":-89.0444,"dy":0.0017,"dx":0.0017,"nx":28,"ny":28,"refTime":"2023-06-26T21:00:00:Z","depth":"4","parameterNumber":2,"parameterNumberName":"U-component_of_CURRENTS"},"data":[0,0,0,0,0,0,0,0,0,0,0,0,0,0,0,0,0,0,0,0,0,0,0,0,0,0,0,0,0,0,0,0,0,0,0,0,0,0,0,0,0,0,0,0,0,0,0,0,0,0,0,0,0,0,0,0,0,0,-0.0694,-0.0695,0,-0.0735,-0.0735,-0.0736,-0.0751,-0.0751,-0.0751,-0.0751,-0.0845,-0.0847,-0.085,0,0,0,0,0,0,0,0,0,0,0,0,0,-0.0683,-0.0683,-0.0694,-0.0695,-0.0695,-0.0735,-0.0735,-0.0736,-0.0751,-0.0751,-0.0751,-0.0751,-0.0844,-0.0847,-0.085,0,0,0,0,0,0,0,0,0,0,0,0,0,-0.0701,-0.0683,-0.0694,-0.0709,-0.0711,-0.0735,-0.0735,-0.0736,-0.0751,-0.0751,-0.0751,-0.0751,-0.0843,-0.0847,-0.085,-0.0872,0,0,-0.0861,-0.0863,0,0,0,0,0,0,0,0,-0.07,-0.0701,-0.0706,-0.0708,-0.071,-0.0739,-0.0766,-0.0785,-0.0751,-0.0734,-0.0751,-0.0751,-0.0815,-0.0821,-0.0826,-0.0877,-0.0881,-0.0862,-0.0864,-0.0866,-0.0867,0,0,0,0,0,0,0,-0.0698,-0.07,-0.0709,-0.0707,-0.0709,-0.0732,-0.0734,-0.0769,-0.0774,-0.0736,-0.0737,-0.0744,-0.0817,-0.0822,-0.0829,-0.0882,-0.0862,-0.0865,-0.0867,-0.0869,-0.1064,-0.1067,0,0,0,0,0,0,-0.0693,-0.0698,-0.0707,-0.071,-0.0707,-0.0732,-0.0734,-0.0729,-0.0773,-0.0779,-0.0744,-0.0745,-0.0816,-0.0824,-0.0832,-0.0947,-0.0866,-0.0869,-0.0871,-0.1061,-0.1065,-0.1068,0,0,0,0,0,0,-0.0693,-0.0693,-0.0706,-0.0707,-0.0711,-0.0732,-0.0726,-0.073,-0.0772,-0.0779,-0.0786,-0.0787,-0.0816,-0.0827,-0.0876,-0.0948,-0.0871,-0.0874,-0.1058,-0.1062,-0.1066,-0.1123,0,0,0,0,0,0,-0.0692,-0.0692,-0.0696,-0.0706,-0.071,-0.0721,-0.0726,-0.073,-0.0774,-0.0777,-0.0818,-0.0824,-0.0817,-0.0871,-0.088,-0.0952,-0.0877,-0.1054,-0.106,-0.1065,-0.1118,-0.1129,-0.1139,0,0,0,0,0,-0.0691,-0.0684,-0.0695,-0.0697,-0.071,-0.0722,-0.0726,-0.0741,-0.0777,-0.0784,-0.0818,-0.0824,-0.0914,-0.0875,-0.0885,-0.096,-0.1051,-0.1058,-0.1064,-0.1113,-0.1127,-0.1139,0,0,0,0,0,0,-0.0678,-0.0686,-0.0698,-0.0694,-0.0711,-0.0725,-0.0729,-0.077,-0.0805,-0.0812,-0.0842,-0.085,-0.0924,-0.0937,-0.0893,-0.1036,-0.0994,-0.1003,-0.1027,-0.104,-0.1051,-0.1011,-0.088,0,0,0,0,0,-0.0678,-0.0677,-0.0693,-0.0693,-0.0696,-0.0731,-0.0747,-0.0762,-0.0791,-0.0809,-0.0853,-0.0904,-0.0957,-0.0991,-0.102,-0.1093,-0.1076,-0.1157,-0.1168,-0.1176,-0.1154,-0.1243,-0.1258,-0.109,-0.109,-0.109,0,0,-0.0675,-0.068,-0.0681,-0.0692,-0.0701,-0.0715,-0.0739,-0.0757,-0.0793,-0.0814,-0.0883,-0.0935,-0.0982,-0.1051,-0.1091,-0.1074,-0.1203,-0.1185,-0.1192,-0.1163,-0.1251,-0.1267,-0.1281,-0.1094,-0.1094,-0.1093,0,0,-0.0669,-0.0667,-0.067,-0.0689,-0.071,-0.0715,-0.0736,-0.0777,-0.0811,-0.0874,-0.0917,-0.0981,-0.108,-0.1108,-0.1142,-0.1231,-0.1251,-0.1305,-0.1334,-0.1423,-0.1437,-0.1449,-0.1382,-0.1388,-0.1319,-0.1319,-0.132,0,-0.0679,-0.0666,-0.0675,-0.0693,-0.0706,-0.0726,-0.0743,-0.0775,-0.0842,-0.0874,-0.0896,-0.1053,-0.1085,-0.1181,-0.1226,-0.1249,-0.1283,-0.1278,-0.1434,-0.1446,-0.1458,-0.1388,-0.1393,-0.1323,-0.1323,-0.1322,-0.1322,0,-0.0674,-0.068,-0.0678,-0.0699,-0.0721,-0.0722,-0.0765,-0.0802,-0.0856,-0.0901,-0.1011,-0.1067,-0.1161,-0.1217,-0.1252,-0.1386,-0.1372,-0.1429,-0.1392,-0.1478,-0.1398,-0.1403,-0.1328,-0.1327,-0.1326,-0.1325,0,0,-0.0661,-0.0671,-0.0677,-0.0689,-0.0719,-0.0734,-0.0777,-0.0812,-0.0855,-0.0945,-0.1018,-0.1136,-0.12,-0.1243,-0.1328,-0.1414,-0.1498,-0.149,-0.1493,-0.1401,-0.1632,-0.1409,-0.1391,-0.1648,-0.1651,-0.1653,-0.1518,0,-0.0654,-0.0665,-0.0683,-0.0707,-0.0706,-0.0743,-0.0783,-0.0836,-0.0885,-0.0956,-0.1041,-0.1156,-0.1209,-0.1307,-0.1392,-0.1506,-0.153,-0.1523,-0.158,-0.1576,-0.1355,-0.1397,-0.1663,-0.1521,-0.1522,-0.1523,-0.1523,0,-0.0643,-0.0646,-0.0658,-0.0694,-0.0702,-0.0734,-0.0782,-0.0828,-0.091,-0.0976,-0.1083,-0.1177,-0.1314,-0.1362,-0.1513,-0.1546,-0.1577,-0.1624,-0.1622,-0.1394,-0.1366,-0.1438,-0.1531,-0.1531,-0.153,-0.1529,-0.1529,0,-0.0604,-0.0634,-0.0633,-0.065,-0.0693,-0.0726,-0.0758,-0.0832,-0.0868,-0.1019,-0.1072,-0.1234,-0.1343,-0.1456,-0.1515,-0.1593,-0.1613,-0.1715,-0.1485,-0.1463,-0.1677,-0.1666,-0.1764,-0.1765,-0.1765,-0.1765,-0.1766,0,-0.0574,-0.0583,-0.0619,-0.0623,-0.0643,-0.071,-0.0751,-0.0813,-0.0891,-0.0917,-0.1102,-0.1125,-0.1412,-0.1443,-0.1497,-0.1444,-0.1583,-0.145,-0.1436,-0.1693,-0.1687,-0.1674,-0.1665,-0.176,-0.1761,-0.1762,-0.1763,0,-0.0539,-0.0552,-0.056,-0.0605,-0.0621,-0.0652,-0.0725,-0.0746,-0.0857,-0.0895,-0.0968,-0.1106,-0.1163,-0.1264,-0.1397,-0.1387,-0.1376,-0.1296,-0.1417,-0.1417,-0.1166,-0.1163,-0.1089,-0.1081,-0.1074,-0.1068,-0.1063,0,-0.0519,-0.0511,-0.054,-0.0539,-0.0561,-0.061,-0.0625,-0.0726,-0.0747,-0.0811,-0.0805,-0.0893,-0.0965,-0.0918,-0.1047,-0.1054,-0.1063,-0.1053,-0.125,-0.1113,-0.1109,-0.1116,-0.1122,-0.1051,-0.1049,-0.1047,-0.1045,0,-0.0476,-0.0488,-0.0492,-0.0483,-0.0498,-0.0507,-0.0542,-0.0545,-0.0634,-0.0723,-0.0685,-0.0711,-0.0697,-0.0786,-0.0774,-0.0782,-0.1102,-0.098,-0.1,-0.1185,-0.1067,-0.107,-0.1085,-0.102,-0.1024,-0.1026,-0.1028,0,-0.0451,-0.0439,-0.0435,-0.0434,-0.0427,-0.0396,-0.0433,-0.0444,-0.0476,-0.057,-0.05,-0.0543,-0.0636,-0.062,-0.0567,-0.0596,-0.0666,-0.076,-0.0794,-0.0822,-0.0806,-0.0621,-0.0399,0,0,0,0,0,-0.042,-0.0397,-0.038,-0.0357,-0.034,-0.0336,-0.0362,-0.0403,-0.0468,-0.0428,-0.0486,-0.0447,-0.0435,-0.0423,-0.0413,-0.0436,-0.0656,-0.0421,-0.0779,-0.0882,-0.0911,-0.0922,0,0,0,0,0,0,-0.0395,-0.038,-0.0365,-0.0291,-0.0252,-0.0226,-0.0235,-0.0275,-0.0278,-0.0351,-0.0344,-0.0414,-0.0401,-0.043,-0.0397,-0.0401,-0.0621,-0.0445,-0.0444,-0.0866,-0.0892,-0.0915,-0.0936,0,0,0,0,0]},{"header":{"parameterUnit":"m.s-1","parameterCategory":2,"la1":30.2991,"la2":30.254,"lo1":-89.0895,"lo2":-89.0444,"dy":0.0017,"dx":0.0017,"nx":28,"ny":28,"refTime":"2023-06-26T21:00:00:Z","depth":"4","parameterNumber":3,"parameterNumberName":"V-component_of_CURRENTS"},"data":[0,0,0,0,0,0,0,0,0,0,0,0,0,0,0,0,0,0,0,0,0,0,0,0,0,0,0,0,0,0,0,0,0,0,0,0,0,0,0,0,0,0,0,0,0,0,0,0,0,0,0,0,0,0,0,0,0,0,-0.0229,-0.0229,0,-0.025,-0.025,-0.0251,-0.026,-0.026,-0.026,-0.0259,-0.0271,-0.0272,-0.0272,0,0,0,0,0,0,0,0,0,0,0,0,0,-0.0173,-0.0174,-0.0229,-0.0229,-0.023,-0.025,-0.025,-0.0251,-0.026,-0.026,-0.026,-0.0259,-0.0271,-0.0272,-0.0272,0,0,0,0,0,0,0,0,0,0,0,0,0,-0.0196,-0.0174,-0.0229,-0.0237,-0.0237,-0.025,-0.025,-0.0251,-0.026,-0.026,-0.0259,-0.0259,-0.0271,-0.0272,-0.0272,-0.0276,0,0,-0.0274,-0.0274,0,0,0,0,0,0,0,0,-0.0195,-0.0198,-0.0235,-0.0236,-0.0237,-0.0252,-0.0235,-0.0259,-0.026,-0.0251,-0.0259,-0.0259,-0.0264,-0.0265,-0.0269,-0.0277,-0.0277,-0.0274,-0.0274,-0.0274,-0.0275,0,0,0,0,0,0,0,-0.0193,-0.0197,-0.0237,-0.0235,-0.0237,-0.0231,-0.0234,-0.0239,-0.0257,-0.0252,-0.0253,-0.0255,-0.0265,-0.0269,-0.027,-0.0277,-0.0274,-0.0274,-0.0275,-0.0275,-0.0331,-0.0332,0,0,0,0,0,0,-0.0192,-0.0196,-0.0237,-0.0238,-0.0215,-0.0232,-0.0236,-0.0247,-0.0258,-0.0259,-0.0255,-0.0255,-0.0268,-0.0269,-0.027,-0.0307,-0.0274,-0.0275,-0.0275,-0.033,-0.0332,-0.0333,0,0,0,0,0,0,-0.0191,-0.0196,-0.0236,-0.0217,-0.0221,-0.0233,-0.0246,-0.0248,-0.0264,-0.026,-0.0262,-0.027,-0.0268,-0.0269,-0.0286,-0.0306,-0.0275,-0.0276,-0.0329,-0.0331,-0.0332,-0.036,0,0,0,0,0,0,-0.0189,-0.0196,-0.0207,-0.0217,-0.0222,-0.0247,-0.0246,-0.0248,-0.0264,-0.0265,-0.0273,-0.0274,-0.0268,-0.0285,-0.0286,-0.0306,-0.0276,-0.0327,-0.033,-0.0332,-0.0358,-0.0363,-0.0367,0,0,0,0,0,-0.0188,-0.0198,-0.0207,-0.0212,-0.0237,-0.0248,-0.025,-0.0257,-0.0265,-0.0272,-0.0282,-0.0274,-0.03,-0.0286,-0.0287,-0.0308,-0.0326,-0.0329,-0.0331,-0.0356,-0.0362,-0.0367,0,0,0,0,0,0,-0.0177,-0.02,-0.0211,-0.0228,-0.0241,-0.0249,-0.0253,-0.0267,-0.028,-0.0286,-0.0284,-0.0286,-0.0311,-0.0307,-0.0292,-0.0333,-0.0314,-0.0317,-0.0333,-0.0338,-0.0343,-0.0337,-0.0276,0,0,0,0,0,-0.0182,-0.02,-0.0215,-0.0232,-0.0234,-0.0249,-0.0256,-0.0269,-0.028,-0.0287,-0.0292,-0.0304,-0.0322,-0.0327,-0.0338,-0.0355,-0.0328,-0.0372,-0.0376,-0.038,-0.0378,-0.035,-0.0351,-0.0342,-0.0342,-0.0342,0,0,-0.0184,-0.0198,-0.021,-0.0232,-0.0238,-0.0254,-0.0253,-0.027,-0.0295,-0.0286,-0.0314,-0.0321,-0.0332,-0.0355,-0.0366,-0.0353,-0.037,-0.0384,-0.0387,-0.0382,-0.0353,-0.0353,-0.0354,-0.0343,-0.0343,-0.0343,0,0,-0.0194,-0.0207,-0.0224,-0.0236,-0.0255,-0.0264,-0.0273,-0.029,-0.0305,-0.0335,-0.034,-0.0361,-0.0378,-0.0391,-0.0401,-0.0439,-0.0398,-0.0443,-0.0456,-0.0429,-0.0429,-0.0429,-0.0393,-0.0389,-0.0441,-0.0441,-0.0441,0,-0.0196,-0.0222,-0.0229,-0.0247,-0.026,-0.0271,-0.0293,-0.0311,-0.0337,-0.0355,-0.0349,-0.0393,-0.04,-0.0435,-0.0445,-0.0449,-0.0414,-0.0432,-0.0433,-0.0432,-0.0431,-0.0394,-0.0389,-0.0443,-0.0442,-0.0442,-0.0442,0,-0.022,-0.0242,-0.0246,-0.0277,-0.0294,-0.031,-0.0335,-0.0356,-0.0375,-0.0397,-0.0435,-0.0441,-0.0466,-0.0474,-0.0468,-0.0477,-0.0448,-0.0442,-0.0412,-0.0433,-0.0394,-0.0388,-0.0445,-0.0444,-0.0444,-0.0443,0,0,-0.0221,-0.0256,-0.0261,-0.0284,-0.0312,-0.0332,-0.0367,-0.0403,-0.0436,-0.0456,-0.0494,-0.0519,-0.0518,-0.0528,-0.0526,-0.0498,-0.0463,-0.0459,-0.0457,-0.0412,-0.0382,-0.0389,-0.0384,-0.0441,-0.0441,-0.044,-0.0355,0,-0.0235,-0.0272,-0.029,-0.0336,-0.0354,-0.0377,-0.041,-0.0452,-0.0479,-0.0515,-0.053,-0.0562,-0.0541,-0.0552,-0.0524,-0.0478,-0.0449,-0.0485,-0.0378,-0.0375,-0.037,-0.0379,-0.0438,-0.0351,-0.035,-0.0349,-0.0348,0,-0.0258,-0.0278,-0.0318,-0.037,-0.038,-0.0415,-0.0471,-0.0504,-0.0552,-0.0577,-0.0603,-0.0606,-0.0595,-0.0572,-0.0488,-0.0502,-0.0445,-0.0401,-0.0397,-0.0389,-0.0373,-0.0329,-0.0338,-0.0338,-0.0339,-0.034,-0.0341,0,-0.026,-0.0305,-0.0338,-0.0354,-0.0407,-0.0441,-0.0473,-0.0527,-0.0559,-0.0614,-0.0639,-0.063,-0.0624,-0.055,-0.0471,-0.0462,-0.0366,-0.035,-0.0307,-0.0306,-0.0309,-0.0311,-0.0293,-0.0293,-0.0293,-0.0293,-0.0293,0,-0.0272,-0.0304,-0.0346,-0.0365,-0.0419,-0.0456,-0.0517,-0.0557,-0.0606,-0.0638,-0.0667,-0.0671,-0.0609,-0.0555,-0.0475,-0.0375,-0.037,-0.0306,-0.0287,-0.0324,-0.0329,-0.0304,-0.0307,-0.029,-0.0291,-0.0291,-0.0292,0,-0.0281,-0.0302,-0.0345,-0.0399,-0.0423,-0.0466,-0.0539,-0.0576,-0.0626,-0.0665,-0.0678,-0.0681,-0.0605,-0.0552,-0.0433,-0.0383,-0.0292,-0.0266,-0.0311,-0.0296,-0.0241,-0.0246,-0.0186,-0.0185,-0.0185,-0.0185,-0.0184,0,-0.0291,-0.0309,-0.0366,-0.0395,-0.0426,-0.0488,-0.0527,-0.0586,-0.0615,-0.0652,-0.0658,-0.0627,-0.0615,-0.0465,-0.0402,-0.0283,-0.0272,-0.023,-0.0232,-0.0243,-0.0231,-0.0236,-0.0242,-0.0184,-0.0184,-0.0184,-0.0184,0,-0.0303,-0.032,-0.035,-0.04,-0.0448,-0.0502,-0.0555,-0.0573,-0.0619,-0.0657,-0.0629,-0.0588,-0.0524,-0.0433,-0.0375,-0.028,-0.0257,-0.0226,-0.0225,-0.0227,-0.0241,-0.023,-0.0235,-0.0183,-0.0183,-0.0183,-0.0183,0,-0.0309,-0.0329,-0.0358,-0.0406,-0.0459,-0.0501,-0.0535,-0.0554,-0.0581,-0.0611,-0.058,-0.0547,-0.052,-0.0429,-0.0353,-0.0295,-0.026,-0.0227,-0.0226,-0.0226,-0.0278,-0.0304,-0.0246,0,0,0,0,0,-0.0311,-0.0327,-0.0365,-0.0412,-0.046,-0.0491,-0.0544,-0.0568,-0.0594,-0.0566,-0.0578,-0.0517,-0.0431,-0.0397,-0.0332,-0.0339,-0.0255,-0.0261,-0.0217,-0.0176,-0.0178,-0.0234,0,0,0,0,0,0,-0.0317,-0.0343,-0.0355,-0.0399,-0.0431,-0.0485,-0.0518,-0.0538,-0.0523,-0.0538,-0.0489,-0.0486,-0.0401,-0.0459,-0.0322,-0.0309,-0.0268,-0.0229,-0.0228,-0.0176,-0.0177,-0.0178,-0.0237,0,0,0,0,0]}]]